WetterOnline ( https://www.wetteronline.de )

Wetter aktuell Neuburg

Aktuelles Wetter: Neuburg/Donau (380m)

6-stündlich | Neueste Meldungen
Ortszeit Temperatur Wetter
Do, 23.05. 20:00 13.5° C wolkig
Do, 23.05. 14:00 21.0° C leicht bewölkt
Do, 23.05. 8:00 10.8° C Nebel (abnehmend)
Do, 23.05. 2:00 11.6° C fast wolkenlos
Mi, 22.05. 20:00 17.3° C wolkig
Mi, 22.05. 14:00 18.1° C wolkig
Mi, 22.05. 8:00 13.7° C wolkig
Mi, 22.05. 2:00 13.3° C leichter Regen
Ortszeit Temperatur Wetter
Fr, 24.05. 0:00 12.3° C leichter Regen
Do, 23.05. 23:00 12.2° C leichter Regen
Do, 23.05. 22:00 12.1° C leichter Regen
Do, 23.05. 21:00 12.7° C wolkig
Do, 23.05. 20:00 13.5° C wolkig
Do, 23.05. 19:00 14.7° C bewölkt
Do, 23.05. 18:00 20.5° C wolkig
Ortszeit Relative Feuchte Sichtweite
Do, 23.05. 20:00 78% 30 km
Do, 23.05. 14:00 51% 50 km
Do, 23.05. 8:00 98% 0.5 km
Do, 23.05. 2:00 89% 60 km
Mi, 22.05. 20:00 67% 40 km
Mi, 22.05. 14:00 60% 50 km
Mi, 22.05. 8:00 85% 20 km
Mi, 22.05. 2:00 91% 15 km
Ortszeit Relative Feuchte Sichtweite
Fr, 24.05. 0:00 91% 30 km
Do, 23.05. 23:00 89% 30 km
Do, 23.05. 22:00 89% 30 km
Do, 23.05. 21:00 82% 30 km
Do, 23.05. 20:00 78% 30 km
Do, 23.05. 19:00 68% 30 km
Do, 23.05. 18:00 45% 30 km
Ortszeit Niederschlagsmenge Niederschlagsart
Do, 23.05. 20:00 0.0 l/m2 in 12 Std. -
Do, 23.05. 14:00 keine Meldung -
Do, 23.05. 8:00 0.1 l/m2 in 12 Std. Nebel
Do, 23.05. 2:00 keine Meldung -
Mi, 22.05. 20:00 0.1 l/m2 in 12 Std. Schauer
Mi, 22.05. 14:00 keine Meldung -
Mi, 22.05. 8:00 4 l/m2 in 12 Std. Regen
Mi, 22.05. 2:00 keine Meldung -
Ortszeit Niederschlagsmenge Niederschlagsart
Fr, 24.05. 0:00 keine Meldung -
Do, 23.05. 23:00 keine Meldung -
Do, 23.05. 22:00 keine Meldung -
Do, 23.05. 21:00 keine Meldung -
Do, 23.05. 20:00 keine Meldung -
Do, 23.05. 19:00 keine Meldung -
Do, 23.05. 18:00 keine Meldung -
Ortszeit Stärke Spitze Richtung
km/h Bft. km/h Grad Sektor
Do, 23.05. 20:00 18 3 54 220° SW
Do, 23.05. 14:00 7 2 - 90° O
Do, 23.05. 8:00 4 1 - - -
Do, 23.05. 2:00 4 1 - 210° SW
Mi, 22.05. 20:00 11 2 - 270° W
Mi, 22.05. 14:00 18 3 - 230° SW
Mi, 22.05. 8:00 14 3 - 250° W
Mi, 22.05. 2:00 11 2 - 220° SW
Ortszeit Stärke Spitze Richtung
km/h Bft. km/h Grad Sektor
Fr, 24.05. 0:00 7 2 - 200° S
Do, 23.05. 23:00 7 2 - - -
Do, 23.05. 22:00 14 3 - 220° SW
Do, 23.05. 21:00 18 3 - 210° SW
Do, 23.05. 20:00 18 3 54 220° SW
Do, 23.05. 19:00 25 4 54 260° W
Do, 23.05. 18:00 4 1 - 90° O
Ortszeit Untergrenze Bedeckung Gattung
total tief tief mittel hoch
Do, 23.05. 20:00 1200 m 7/8 4/8 Cu As -
Do, 23.05. 14:00 1200 m 6/8 2/8 Cu Ac Ci
Do, 23.05. 8:00 - 8/8 - - - -
Do, 23.05. 2:00 3000 m 1/8 1/8 - Ac Ci
Mi, 22.05. 20:00 2400 m 6/8 4/8 Cb Ac -
Mi, 22.05. 14:00 900 m 6/8 2/8 Cu As Ci
Mi, 22.05. 8:00 300 m 7/8 1/8 Cu As Ci
Mi, 22.05. 2:00 1800 m 8/8 2/8 Sc Ns -
Ortszeit Bedeckungsgrad in Achtel und Wolkenuntergrenze
Fr, 24.05. 0:00 7(210m)
Do, 23.05. 23:00 2(300m) 7(1800m) 8
Do, 23.05. 22:00 1(450m) 5(2700m) 7(3600m)
Do, 23.05. 21:00 1(450m) 3(1800m) 5(3000m)
Do, 23.05. 20:00 1(1200m) 4(1800m) 5(3000m)
Do, 23.05. 19:00 1(600m) 6(1800m) 7(4500m)
Do, 23.05. 18:00 1(1500m) 5(3600m) 6(6000m)
Ortszeit Luftdruck NN (hPa) Tendenz (hPa in 3 Std.)
Do, 23.05. 20:00 1016 + 2,1
Do, 23.05. 14:00 1014 - 1,0
Do, 23.05. 8:00 1017 + 1,0
Do, 23.05. 2:00 1016 + 0,4
Mi, 22.05. 20:00 1012 + 0,5
Mi, 22.05. 14:00 1011 + 0,1
Mi, 22.05. 8:00 1010 + 1,2
Mi, 22.05. 2:00 1009 + 0,4
Ortszeit Luftdruck NN (hPa) Tendenz (hPa in 3 Std.)
Fr, 24.05. 0:00 1018 + 1,1
Do, 23.05. 23:00 1018 + 1,4
Do, 23.05. 22:00 1017 + 1,6
Do, 23.05. 21:00 1017 + 2,3
Do, 23.05. 20:00 1016 + 2,1
Do, 23.05. 19:00 1015 + 1,2
Do, 23.05. 18:00 1013 - 0,4
Ortszeit Schneehöhe (cm)
Do, 23.05. 20:00 0
Do, 23.05. 14:00 -
Do, 23.05. 8:00 0
Do, 23.05. 2:00 -
Mi, 22.05. 20:00 0
Mi, 22.05. 14:00 -
Mi, 22.05. 8:00 0
Mi, 22.05. 2:00 -
Ortszeit Schneehöhe (cm)
Fr, 24.05. 0:00 -
Do, 23.05. 23:00 -
Do, 23.05. 22:00 -
Do, 23.05. 21:00 -
Do, 23.05. 20:00 0
Do, 23.05. 19:00 -
Do, 23.05. 18:00 -
Link zu dieser Seite / Seite empfehlen

Das Wetter in ...